When you browse on this site, cookies collect data to enhance your experience and personalize the content and advertising you see.
Visit our Privacy Policy to learn more. By continuing to use the site, you agree to this use of cookies and data.
  • en Suisse
  • Liste des pays
  • À 7 jours
  • Température de l'eau
  • Carte satellitaire
  • Carte météo
  • Widgets météo
  • user-avatar
    Se connecter

    Météo par heure à Yangjiang

    Ce jour, 27 Mai, Lundi

    Heure Température Précipitation Vent Pression Humidité
    00:00 +28°C° 0.3 mm 2 m/s 753 mmHg 90%
    01:00 +28°C° 0 mm 2 m/s 753 mmHg 90%
    02:00 +28°C° 0.8 mm 2 m/s 753 mmHg 89%
    03:00 +28°C° 0.8 mm 2 m/s 753 mmHg 89%
    04:00 +28°C° 0.8 mm 2 m/s 753 mmHg 89%
    05:00 +29°C° 0.7 mm 2 m/s 753 mmHg 85%
    06:00 +30°C° 0.7 mm 2 m/s 753 mmHg 80%
    07:00 +31°C° 0.7 mm 2 m/s 754 mmHg 76%
    08:00 +33°C° 0.4 mm 3 m/s 754 mmHg 72%
    09:00 +33°C° 0.4 mm 4 m/s 754 mmHg 69%
    10:00 +34°C° 0.4 mm 4 m/s 754 mmHg 65%
    11:00 +34°C° 0 mm 5 m/s 754 mmHg 65%
    12:00 +35°C° 0 mm 5 m/s 753 mmHg 64%
    13:00 +35°C° 0 mm 5 m/s 753 mmHg 64%
    14:00 +34°C° 0 mm 5 m/s 753 mmHg 66%
    15:00 +34°C° 0 mm 5 m/s 753 mmHg 69%
    16:00 +33°C° 0 mm 4 m/s 752 mmHg 71%
    17:00 +32°C° 0 mm 4 m/s 753 mmHg 76%
    18:00 +30°C° 0 mm 3 m/s 753 mmHg 82%
    19:00 +29°C° 0 mm 2 m/s 753 mmHg 88%
    20:00 +29°C° 0.2 mm 2 m/s 754 mmHg 89%
    21:00 +29°C° 0.2 mm 2 m/s 754 mmHg 90%
    22:00 +28°C° 0.2 mm 1 m/s 755 mmHg 91%
    23:00 +28°C° 0.1 mm 1 m/s 754 mmHg 91%

    Demain, 28 Mai, Mardi

    Heure Température Précipitation Vent Pression Humidité
    00:00 +28°C° 0.1 mm 1 m/s 754 mmHg 92%
    01:00 +28°C° 0.1 mm 1 m/s 754 mmHg 92%
    02:00 +28°C° 0.1 mm 1 m/s 754 mmHg 93%
    03:00 +28°C° 0.1 mm 1 m/s 754 mmHg 93%
    04:00 +27°C° 0.1 mm 1 m/s 753 mmHg 94%
    05:00 +28°C° 0.7 mm 1 m/s 754 mmHg 89%
    06:00 +29°C° 0.7 mm 1 m/s 754 mmHg 85%
    07:00 +30°C° 0.7 mm 1 m/s 754 mmHg 81%
    08:00 +31°C° 1.6 mm 2 m/s 754 mmHg 78%
    09:00 +32°C° 1.6 mm 2 m/s 755 mmHg 75%
    10:00 +33°C° 1.6 mm 3 m/s 755 mmHg 72%
    11:00 +34°C° 1.1 mm 3 m/s 755 mmHg 71%
    12:00 +34°C° 1.1 mm 3 m/s 754 mmHg 70%
    13:00 +34°C° 1.1 mm 4 m/s 754 mmHg 69%
    14:00 +34°C° 0.5 mm 3 m/s 754 mmHg 71%
    15:00 +33°C° 0.5 mm 3 m/s 753 mmHg 73%
    16:00 +33°C° 0.5 mm 3 m/s 753 mmHg 75%
    17:00 +31°C° 0.1 mm 3 m/s 754 mmHg 80%
    18:00 +30°C° 0.1 mm 2 m/s 754 mmHg 85%
    19:00 +29°C° 0.1 mm 2 m/s 755 mmHg 89%
    20:00 +29°C° 0.3 mm 1 m/s 755 mmHg 90%
    21:00 +29°C° 0.3 mm 1 m/s 755 mmHg 91%
    22:00 +28°C° 0.3 mm 1 m/s 756 mmHg 92%
    23:00 +28°C° 0.9 mm 1 m/s 755 mmHg 92%

    Après-demain, 29 Mai, Mercredi

    Heure Température Précipitation Vent Pression Humidité
    00:00 +28°C° 0.9 mm 1 m/s 755 mmHg 91%
    01:00 +28°C° 0.9 mm 1 m/s 755 mmHg 91%
    02:00 +28°C° 0.3 mm 1 m/s 754 mmHg 91%
    03:00 +27°C° 0.3 mm 1 m/s 754 mmHg 92%
    04:00 +27°C° 0.3 mm 2 m/s 754 mmHg 92%
    05:00 +28°C° 0.2 mm 2 m/s 754 mmHg 89%
    06:00 +29°C° 0.2 mm 2 m/s 755 mmHg 86%
    07:00 +29°C° 0.2 mm 3 m/s 755 mmHg 84%
    08:00 +30°C° 1.1 mm 3 m/s 756 mmHg 82%
    09:00 +30°C° 1.1 mm 4 m/s 756 mmHg 80%
    10:00 +32°C° 1.1 mm 5 m/s 756 mmHg 79%
    11:00 +32°C° 1.5 mm 5 m/s 756 mmHg 79%
    12:00 +32°C° 1.5 mm 5 m/s 755 mmHg 80%
    13:00 +32°C° 1.5 mm 5 m/s 755 mmHg 81%
    14:00 +30°C° 1.2 mm 6 m/s 754 mmHg 82%
    15:00 +30°C° 1.2 mm 6 m/s 754 mmHg 83%
    16:00 +30°C° 1.2 mm 6 m/s 754 mmHg 83%
    17:00 +29°C° 0.8 mm 5 m/s 754 mmHg 87%
    18:00 +28°C° 0.8 mm 4 m/s 755 mmHg 90%
    19:00 +27°C° 0.8 mm 4 m/s 755 mmHg 93%
    20:00 +27°C° 0.2 mm 4 m/s 756 mmHg 93%
    21:00 +27°C° 0.2 mm 3 m/s 756 mmHg 94%
    22:00 +27°C° 0.2 mm 3 m/s 757 mmHg 95%
    23:00 +27°C° 0.2 mm 3 m/s 756 mmHg 95%

    30 Mai, Jeudi

    Heure Température Précipitation Vent Pression Humidité
    00:00 +27°C° 0.2 mm 3 m/s 756 mmHg 95%
    01:00 +26°C° 0.2 mm 3 m/s 755 mmHg 96%
    02:00 +26°C° 0.4 mm 3 m/s 755 mmHg 96%
    03:00 +26°C° 0.4 mm 3 m/s 755 mmHg 96%
    04:00 +26°C° 0.4 mm 3 m/s 755 mmHg 96%
    05:00 +27°C° 1.1 mm 3 m/s 755 mmHg 94%
    06:00 +27°C° 1.1 mm 3 m/s 756 mmHg 92%
    07:00 +28°C° 1.1 mm 3 m/s 756 mmHg 90%
    08:00 +28°C° 1.6 mm 4 m/s 756 mmHg 88%
    09:00 +29°C° 1.6 mm 4 m/s 756 mmHg 87%
    10:00 +29°C° 1.6 mm 4 m/s 757 mmHg 86%
    11:00 +30°C° 1 mm 4 m/s 756 mmHg 84%
    12:00 +30°C° 1 mm 4 m/s 755 mmHg 83%
    13:00 +32°C° 1 mm 4 m/s 755 mmHg 81%
    14:00 +30°C° 0.1 mm 4 m/s 755 mmHg 82%
    15:00 +30°C° 0.1 mm 4 m/s 754 mmHg 84%
    16:00 +29°C° 0.1 mm 3 m/s 754 mmHg 85%
    17:00 +29°C° 0 mm 3 m/s 754 mmHg 88%
    18:00 +28°C° 0 mm 2 m/s 755 mmHg 90%
    19:00 +28°C° 0 mm 2 m/s 755 mmHg 93%
    20:00 +28°C° 0.1 mm 2 m/s 755 mmHg 93%
    21:00 +27°C° 0.1 mm 1 m/s 756 mmHg 93%
    22:00 +27°C° 0.1 mm 1 m/s 756 mmHg 93%
    23:00 +27°C° 0.2 mm 1 m/s 756 mmHg 93%

    31 Mai, Vendredi

    Heure Température Précipitation Vent Pression Humidité
    00:00 +27°C° 0.2 mm 1 m/s 755 mmHg 94%
    01:00 +27°C° 0.2 mm 1 m/s 755 mmHg 94%
    02:00 +27°C° 0.2 mm 1 m/s 755 mmHg 94%
    03:00 +27°C° 0.2 mm 1 m/s 755 mmHg 94%
    04:00 +25°C° 0.2 mm 0 m/s 755 mmHg 94%
    05:00 +28°C° 0.2 mm 1 m/s 755 mmHg 90%
    06:00 +29°C° 0.2 mm 1 m/s 755 mmHg 86%
    07:00 +30°C° 0.2 mm 1 m/s 756 mmHg 83%
    08:00 +31°C° 0.3 mm 2 m/s 756 mmHg 79%
    09:00 +33°C° 0.3 mm 3 m/s 756 mmHg 75%
    10:00 +33°C° 0.3 mm 3 m/s 756 mmHg 71%
    11:00 +34°C° 0 mm 4 m/s 755 mmHg 71%
    12:00 +34°C° 0 mm 4 m/s 755 mmHg 70%
    13:00 +34°C° 0 mm 5 m/s 754 mmHg 69%
    14:00 +34°C° 0 mm 5 m/s 754 mmHg 71%
    15:00 +33°C° 0 mm 5 m/s 753 mmHg 73%
    16:00 +33°C° 0 mm 5 m/s 753 mmHg 75%
    17:00 +32°C° 0.2 mm 4 m/s 754 mmHg 80%
    18:00 +30°C° 0.2 mm 3 m/s 754 mmHg 85%
    19:00 +28°C° 0.2 mm 2 m/s 754 mmHg 90%
    20:00 +28°C° 0.2 mm 2 m/s 755 mmHg 90%
    21:00 +28°C° 0.2 mm 2 m/s 755 mmHg 90%
    22:00 +28°C° 0.2 mm 2 m/s 755 mmHg 91%
    23:00 +28°C° 0.5 mm 2 m/s 755 mmHg 91%

    1 Juin, Samedi

    Heure Température Précipitation Vent Pression Humidité
    00:00 +28°C° 0.5 mm 2 m/s 754 mmHg 92%
    01:00 +28°C° 0.5 mm 2 m/s 754 mmHg 92%
    02:00 +28°C° 1.3 mm 2 m/s 754 mmHg 92%
    03:00 +27°C° 1.3 mm 2 m/s 754 mmHg 91%
    04:00 +27°C° 1.3 mm 2 m/s 754 mmHg 91%
    05:00 +28°C° 0.5 mm 2 m/s 754 mmHg 89%
    06:00 +29°C° 0.5 mm 2 m/s 754 mmHg 86%
    07:00 +29°C° 0.5 mm 2 m/s 755 mmHg 83%
    08:00 +30°C° 0.3 mm 3 m/s 755 mmHg 80%
    09:00 +32°C° 0.3 mm 4 m/s 754 mmHg 76%
    10:00 +33°C° 0.3 mm 6 m/s 754 mmHg 73%
    11:00 +33°C° 0 mm 6 m/s 754 mmHg 72%
    12:00 +33°C° 0 mm 6 m/s 754 mmHg 70%
    13:00 +34°C° 0 mm 6 m/s 753 mmHg 69%
    14:00 +33°C° 0 mm 5 m/s 753 mmHg 72%
    15:00 +32°C° 0 mm 5 m/s 753 mmHg 75%
    16:00 +32°C° 0 mm 4 m/s 752 mmHg 78%
    17:00 +30°C° 0.3 mm 3 m/s 753 mmHg 81%
    18:00 +29°C° 0.3 mm 3 m/s 753 mmHg 85%
    19:00 +28°C° 0.3 mm 2 m/s 753 mmHg 89%
    20:00 +28°C° 0.1 mm 2 m/s 754 mmHg 89%
    21:00 +28°C° 0.1 mm 2 m/s 754 mmHg 89%
    22:00 +28°C° 0.1 mm 2 m/s 754 mmHg 90%
    23:00 +28°C° 0.1 mm 2 m/s 753 mmHg 90%
    Voir plus